Cando, ND

2:54 PM CDT on April 29, 2017 (GMT -0500)
Cando

Weather History for K9D7 - May, 2014

Change the Weather History Date:

Sunday, May 11, 2014

  Actual Average (KDVL) Record (KDVL)
Temperature  
Mean Temperature 42 °F -  
Max Temperature 48 °F 62 °F 89 °F (1987)
Min Temperature 37 °F 42 °F 26 °F (2005)
Degree Days  
Heating Degree Days 22    
Moisture  
Dew Point 39 °F    
Average Humidity 84    
Maximum Humidity 93    
Minimum Humidity 71    
Precipitation  
Precipitation 0.07 in - - ()
Sea Level Pressure  
Sea Level Pressure 29.94 in    
Wind  
Wind Speed 19 mph (North)    
Max Wind Speed 29 mph    
Max Gust Speed 36 mph    
Visibility 10 miles    
Events Rain    
Averages and records for this station are not official NWS values.
T = Trace of Precipitation, MM = Missing Value Source: NWS Daily Summary

Daily Weather History Graph

Daily Weather History Graph

Search for Another Location

Airport or City:

Trip Planner

Search our weather history database for the weather conditions in past years. The results will help you decide how hot, cold, wet, or windy it might be!

Date:

Astronomy

May. 11, 2014 Rise Set
Actual Time 6:01 AM CDT 9:05 PM CDT
Civil Twilight 5:25 AM CDT 9:42 PM CDT
Nautical Twilight 4:37 AM CDT 10:30 PM CDT
Astronomical Twilight 3:38 AM CDT 11:30 PM CDT
Moon 5:48 PM CDT (5/11) 4:25 AM CDT (5/11)
Length of Visible Light 16h 17m
Length of Day
15h 03m
Waxing Gibbous, 89% of the Moon is Illuminated
May 11
Waxing Gibbous
May 14
Full
May 21
Last Quarter
May 28
New
Jun 5
First Quarter

Hourly Weather History & Observations

Time (CDT) Temp. Windchill Dew Point Humidity Pressure Visibility Wind Dir Wind Speed Gust Speed Precip Events Conditions
12:15 AM 48.2 °F - 44.6 °F 87% 29.78 in 10.0 mi NNW 10.4 mph - N/A   Overcast
12:35 AM 48.2 °F - 41.0 °F 76% 29.78 in 10.0 mi North 11.5 mph - N/A   Overcast
12:55 AM 48.2 °F - 41.0 °F 76% 29.79 in 10.0 mi North 13.8 mph 18.4 mph N/A   Overcast
1:15 AM 48.2 °F - 42.8 °F 82% 29.80 in 10.0 mi North 13.8 mph - N/A   Overcast
1:35 AM 48.2 °F - 44.6 °F 87% 29.80 in 10.0 mi North 13.8 mph 18.4 mph N/A   Overcast
1:55 AM 48.2 °F - 41.0 °F 76% 29.80 in 10.0 mi North 19.6 mph 25.3 mph N/A   Overcast
2:15 AM 46.4 °F 39.0 °F 41.0 °F 81% 29.80 in 10.0 mi North 19.6 mph 27.6 mph N/A   Overcast
2:35 AM 46.4 °F 39.5 °F 41.0 °F 81% 29.81 in 10.0 mi North 17.3 mph - N/A   Overcast
2:55 AM 46.4 °F 39.0 °F 39.2 °F 76% 29.82 in 10.0 mi North 19.6 mph 28.8 mph N/A   Overcast
3:15 AM 46.4 °F 39.2 °F 39.2 °F 76% 29.82 in 10.0 mi North 18.4 mph 27.6 mph N/A   Overcast
3:35 AM 46.4 °F 39.5 °F 37.4 °F 71% 29.83 in 10.0 mi North 17.3 mph 28.8 mph N/A   Overcast
4:15 AM 44.6 °F 36.4 °F 37.4 °F 76% 29.83 in 10.0 mi North 20.7 mph - N/A   Overcast
4:35 AM 44.6 °F 36.1 °F 35.6 °F 71% 29.82 in 10.0 mi NNE 21.9 mph 26.5 mph N/A   Overcast
4:55 AM 44.6 °F 35.7 °F 35.6 °F 71% 29.82 in 10.0 mi North 24.2 mph 31.1 mph N/A   Overcast
5:15 AM 44.6 °F 36.4 °F 37.4 °F 76% 29.84 in 10.0 mi North 20.7 mph 27.6 mph N/A   Overcast
5:35 AM 44.6 °F 35.7 °F 37.4 °F 76% 29.84 in 10.0 mi North 24.2 mph 29.9 mph N/A   Overcast
5:55 AM 44.6 °F 36.6 °F 37.4 °F 76% 29.84 in 10.0 mi North 19.6 mph 27.6 mph N/A   Overcast
6:15 AM 44.6 °F 36.1 °F 37.4 °F 76% 29.84 in 10.0 mi North 21.9 mph 31.1 mph N/A   Overcast
6:35 AM 44.6 °F 36.1 °F 37.4 °F 76% 29.85 in 10.0 mi North 21.9 mph 31.1 mph N/A   Overcast
6:55 AM 44.6 °F 36.1 °F 37.4 °F 76% 29.86 in 10.0 mi North 21.9 mph 27.6 mph N/A   Overcast
7:15 AM 44.6 °F 36.6 °F 37.4 °F 76% 29.87 in 10.0 mi North 19.6 mph 26.5 mph N/A   Overcast
7:35 AM 44.6 °F 36.6 °F 37.4 °F 76% 29.88 in 10.0 mi North 19.6 mph 27.6 mph N/A   Overcast
7:55 AM 44.6 °F 36.6 °F 37.4 °F 76% 29.88 in 10.0 mi North 19.6 mph 24.2 mph N/A   Overcast
8:15 AM 44.6 °F 36.9 °F 37.4 °F 76% 29.88 in 10.0 mi North 18.4 mph 25.3 mph N/A   Overcast
8:35 AM 44.6 °F - 37.4 °F 76% 29.89 in 10.0 mi North - - N/A   Overcast
8:55 AM 44.6 °F 37.2 °F 37.4 °F 76% 29.90 in 10.0 mi North 17.3 mph 26.5 mph N/A   Overcast
9:15 AM 44.6 °F 36.6 °F 39.2 °F 81% 29.90 in 10.0 mi North 19.6 mph 26.5 mph N/A   Overcast
9:35 AM 44.6 °F 37.2 °F 39.2 °F 81% 29.90 in 10.0 mi North 17.3 mph 21.9 mph N/A   Overcast
9:55 AM 44.6 °F 36.6 °F 39.2 °F 81% 29.90 in 10.0 mi North 19.6 mph 26.5 mph N/A   Overcast
10:15 AM 44.6 °F - 39.2 °F 81% 29.91 in 10.0 mi North - - N/A   Overcast
10:35 AM 44.6 °F 37.2 °F 39.2 °F 81% 29.93 in 9.0 mi NNW 17.3 mph 24.2 mph N/A   Overcast
10:55 AM 42.8 °F 34.3 °F 39.2 °F 87% 29.94 in 7.0 mi North 19.6 mph 26.5 mph N/A   Overcast
11:15 AM 42.8 °F 34.3 °F 39.2 °F 87% 29.95 in 9.0 mi North 19.6 mph 27.6 mph N/A Rain Light Rain
11:35 AM 42.8 °F 35.1 °F 39.2 °F 87% 29.98 in 5.0 mi North 16.1 mph 25.3 mph N/A Rain Light Rain
11:55 AM 42.8 °F 34.5 °F 39.2 °F 87% 29.99 in 3.0 mi North 18.4 mph 25.3 mph 0.04 in Rain Rain
12:15 PM 42.8 °F 34.0 °F 41.0 °F 93% 29.98 in 4.0 mi North 20.7 mph 24.2 mph 0.01 in Rain Light Rain
12:35 PM 41.0 °F 30.9 °F 39.2 °F 93% 29.99 in 6.0 mi North 24.2 mph 31.1 mph 0.02 in Rain Light Rain
12:55 PM 41.0 °F 31.6 °F 39.2 °F 93% 30.00 in 5.0 mi North 20.7 mph 28.8 mph 0.03 in Rain Light Rain
1:15 PM 41.0 °F 30.7 °F 39.2 °F 93% 29.99 in 7.0 mi North 25.3 mph 28.8 mph N/A Rain Light Rain
1:35 PM 41.0 °F 31.6 °F 39.2 °F 93% 29.99 in 10.0 mi North 20.7 mph 29.9 mph N/A   Overcast
1:55 PM 42.8 °F 33.3 °F 39.2 °F 87% 29.99 in 10.0 mi North 24.2 mph 33.4 mph N/A   Overcast
2:15 PM 42.8 °F 32.7 °F 39.2 °F 87% 29.99 in 10.0 mi North 27.6 mph 34.5 mph N/A   Overcast
2:35 PM 42.8 °F 33.1 °F 39.2 °F 87% 29.99 in 10.0 mi North 25.3 mph 35.7 mph N/A   Overcast
2:55 PM 44.6 °F 35.5 °F 41.0 °F 87% 29.99 in 10.0 mi North 25.3 mph 32.2 mph N/A   Overcast
3:15 PM 44.6 °F 35.5 °F 41.0 °F 87% 29.99 in 10.0 mi North 25.3 mph 33.4 mph N/A   Overcast
3:35 PM 44.6 °F 36.6 °F 41.0 °F 87% 29.99 in 10.0 mi North 19.6 mph 33.4 mph N/A   Overcast
3:55 PM 44.6 °F 35.5 °F 41.0 °F 87% 29.98 in 10.0 mi North 25.3 mph 34.5 mph N/A   Overcast
4:15 PM 44.6 °F 35.5 °F 39.2 °F 81% 29.99 in 10.0 mi North 25.3 mph 33.4 mph N/A   Overcast
4:35 PM 44.6 °F 35.5 °F 39.2 °F 81% 30.00 in 10.0 mi North 25.3 mph 33.4 mph N/A   Overcast
4:55 PM 44.6 °F 35.5 °F 39.2 °F 81% 30.01 in 10.0 mi North 25.3 mph 33.4 mph N/A   Overcast
5:15 PM 42.8 °F 33.3 °F 39.2 °F 87% 30.01 in 10.0 mi North 24.2 mph 33.4 mph N/A   Overcast
5:35 PM 42.8 °F 32.5 °F 39.2 °F 87% 30.01 in 10.0 mi North 28.8 mph 35.7 mph N/A   Overcast
5:55 PM 42.8 °F 33.1 °F 39.2 °F 87% 30.01 in 10.0 mi North 25.3 mph 31.1 mph N/A   Overcast
6:15 PM 41.0 °F 31.1 °F 39.2 °F 93% 30.02 in 10.0 mi North 23.0 mph 31.1 mph N/A   Overcast
6:35 PM 41.0 °F 30.9 °F 37.4 °F 87% 30.01 in 10.0 mi North 24.2 mph 33.4 mph N/A   Overcast
6:55 PM 42.8 °F 33.1 °F 39.2 °F 87% 30.02 in 10.0 mi North 25.3 mph 32.2 mph N/A   Overcast
7:15 PM 41.0 °F 30.9 °F 37.4 °F 87% 30.03 in 10.0 mi North 24.2 mph 34.5 mph N/A   Overcast
7:35 PM 41.0 °F 30.9 °F 37.4 °F 87% 30.03 in 10.0 mi North 24.2 mph 32.2 mph N/A   Overcast
7:55 PM 41.0 °F 31.4 °F 37.4 °F 87% 30.04 in 10.0 mi NNW 21.9 mph 28.8 mph N/A   Overcast
8:15 PM 39.2 °F 28.7 °F 37.4 °F 93% 30.05 in 10.0 mi NNW 23.0 mph 32.2 mph N/A   Overcast
8:35 PM 39.2 °F 28.7 °F 37.4 °F 93% 30.05 in 10.0 mi NNW 23.0 mph 28.8 mph N/A   Overcast
8:55 PM 39.2 °F 28.5 °F 37.4 °F 93% 30.05 in 10.0 mi NNW 24.2 mph 27.6 mph N/A   Overcast
9:15 PM 39.2 °F 28.3 °F 35.6 °F 87% 30.05 in 10.0 mi North 25.3 mph 31.1 mph N/A   Overcast
9:35 PM 39.2 °F - 35.6 °F 87% 30.05 in 10.0 mi North - - N/A   Overcast
9:55 PM 39.2 °F 29.3 °F 35.6 °F 87% 30.06 in 10.0 mi North 20.7 mph 27.6 mph N/A   Overcast
10:15 PM 39.2 °F 29.6 °F 35.6 °F 87% 30.07 in 10.0 mi NNW 19.6 mph 25.3 mph N/A   Overcast
10:35 PM 37.4 °F 27.2 °F 35.6 °F 93% 30.06 in 10.0 mi NNW 19.6 mph 27.6 mph N/A   Overcast
10:55 PM 37.4 °F 27.5 °F 35.6 °F 93% 30.06 in 10.0 mi North 18.4 mph 26.5 mph N/A   Overcast
11:15 PM 37.4 °F 27.5 °F 35.6 °F 93% 30.07 in 10.0 mi NNW 18.4 mph 26.5 mph N/A   Overcast
11:35 PM 37.4 °F 27.5 °F 35.6 °F 93% 30.07 in 10.0 mi NNW 18.4 mph 26.5 mph N/A   Overcast
11:55 PM 37.4 °F 28.5 °F 35.6 °F 93% 30.07 in 10.0 mi NNW 15.0 mph 26.5 mph N/A   Overcast